Huntsville, AL

12:12 PM CDT on July 27, 2017 (GMT -0500)
Huntsville International

Weather History for KHSV - January, 2012

Change the Weather History Date:

Tuesday, January 31, 2012

  Actual Average Record
Temperature  
Mean Temperature 52 °F 43 °F  
Max Temperature 66 °F 53 °F 76 °F (2002)
Min Temperature 37 °F 33 °F -5 °F (1936)
Degree Days  
Heating Degree Days 13 22  
Month to date heating degree days 551 733  
Since 1 July heating degree days 1657 1910  
Cooling Degree Days 0 0  
Month to date cooling degree days 0 0  
Year to date cooling degree days 0 0  
Growing Degree Days 2 (Base 50)    
Moisture  
Dew Point 33 °F    
Average Humidity 46    
Maximum Humidity 63    
Minimum Humidity 29    
Precipitation  
Precipitation T in 0.16 in 4.01 in (1951)
Month to date precipitation 7.79 4.89  
Year to date precipitation 7.79 4.89  
Snow  
Snow 0.00 in - - ()
Month to date snowfall T  
Since 1 July snowfall T  
Snow Depth 0.00 in    
Sea Level Pressure  
Sea Level Pressure 30.27 in    
Wind  
Wind Speed 6 mph (SE)    
Max Wind Speed 18 mph    
Max Gust Speed 22 mph    
Visibility 10 miles    
Events      
T = Trace of Precipitation, MM = Missing Value Source: NWS Daily Summary

Daily Weather History Graph

Daily Weather History Graph

Search for Another Location

Airport or City:

Trip Planner

Search our weather history database for the weather conditions in past years. The results will help you decide how hot, cold, wet, or windy it might be!

Date:

Astronomy

Jan. 31, 2012 Rise Set
Actual Time 6:46 AM CST 5:15 PM CST
Civil Twilight 6:19 AM CST 5:41 PM CST
Nautical Twilight 5:49 AM CST 6:11 PM CST
Astronomical Twilight 5:19 AM CST 6:41 PM CST
Moon 11:06 AM CST (1/31) 12:32 AM CST (1/31)
Length of Visible Light 11h 21m
Length of Day
10h 28m
First Quarter, 55% of the Moon is Illuminated
Jan 31
First Quarter
Feb 7
Full
Feb 14
Last Quarter
Feb 21
New
Feb 29
First Quarter

Hourly Weather History & Observations

Time (CST) Temp. Windchill Dew Point Humidity Pressure Visibility Wind Dir Wind Speed Gust Speed Precip Events Conditions
12:53 AM 42.1 °F 38.4 °F 27.0 °F 55% 30.32 in 10.0 mi SSE 5.8 mph - N/A   Partly Cloudy
1:53 AM 41.0 °F 38.0 °F 25.0 °F 53% 30.32 in 10.0 mi ESE 4.6 mph - N/A   Partly Cloudy
2:53 AM 41.0 °F 37.1 °F 26.1 °F 55% 30.31 in 10.0 mi ESE 5.8 mph - N/A   Scattered Clouds
3:53 AM 44.1 °F 40.8 °F 28.0 °F 53% 30.30 in 10.0 mi East 5.8 mph - N/A   Mostly Cloudy
4:53 AM 45.0 °F 42.6 °F 27.0 °F 49% 30.30 in 10.0 mi ESE 4.6 mph - N/A   Mostly Cloudy
5:53 AM 46.9 °F - 28.9 °F 50% 30.31 in 10.0 mi SE 5.8 mph - N/A   Mostly Cloudy
6:53 AM 46.9 °F - 30.9 °F 54% 30.32 in 10.0 mi ESE 5.8 mph - N/A   Overcast
7:53 AM 48.9 °F - 30.0 °F 48% 30.33 in 10.0 mi ESE 4.6 mph - N/A   Partly Cloudy
8:53 AM 53.6 °F - 28.4 °F 38% 30.34 in 10.0 mi ESE 3.5 mph - N/A   Mostly Cloudy
9:53 AM 55.9 °F - 30.0 °F 37% 30.35 in 10.0 mi South 10.4 mph - N/A   Scattered Clouds
10:53 AM 57.9 °F - 30.9 °F 36% 30.33 in 10.0 mi South 5.8 mph - N/A   Mostly Cloudy
11:53 AM 60.1 °F - 28.9 °F 31% 30.29 in 10.0 mi South 9.2 mph - N/A   Scattered Clouds
12:53 PM 64.9 °F - 32.0 °F 29% 30.24 in 10.0 mi South 8.1 mph - N/A   Scattered Clouds
1:53 PM 63.0 °F - 32.0 °F 31% 30.22 in 10.0 mi South 10.4 mph - N/A   Mostly Cloudy
2:53 PM 63.0 °F - 36.0 °F 37% 30.22 in 10.0 mi South 10.4 mph - N/A   Mostly Cloudy
3:53 PM 62.1 °F - 36.0 °F 38% 30.21 in 10.0 mi SSE 8.1 mph - N/A   Mostly Cloudy
4:53 PM 57.9 °F - 37.9 °F 47% 30.21 in 10.0 mi SSE 8.1 mph - N/A   Scattered Clouds
5:53 PM 57.0 °F - 37.0 °F 47% 30.22 in 10.0 mi SE 6.9 mph - N/A   Mostly Cloudy
6:53 PM 55.0 °F - 37.0 °F 51% 30.23 in 10.0 mi SE 6.9 mph - N/A   Scattered Clouds
7:53 PM 53.1 °F - 36.0 °F 52% 30.22 in 10.0 mi ESE 4.6 mph - N/A   Mostly Cloudy
8:53 PM 52.0 °F - 39.0 °F 61% 30.21 in 10.0 mi ESE 8.1 mph - N/A   Mostly Cloudy
9:53 PM 54.0 °F - 39.0 °F 57% 30.21 in 10.0 mi ESE 4.6 mph - N/A   Overcast
10:53 PM 55.0 °F - 41.0 °F 59% 30.21 in 10.0 mi Calm Calm - 0.00 in   Overcast
11:53 PM 55.0 °F - 43.0 °F 64% 30.20 in 10.0 mi SE 5.8 mph - N/A   Overcast